Weather History for Monroe, MI

Change the Weather History Date:

Saturday, September 21, 2013

  Actual Average Record
Temperature  
Mean Temperature 63 °F -  
Max Temperature 71 °F 73 °F 95 °F (1931)
Min Temperature 55 °F 51 °F 34 °F (1956)
Degree Days  
Heating Degree Days 2    
Growing Degree Days 13 (Base 50)    
Moisture  
Dew Point 58 °F    
Average Humidity 78    
Maximum Humidity 100    
Minimum Humidity 46    
Precipitation  
Precipitation 0.00 in - - ()
Sea Level Pressure  
Sea Level Pressure 29.74 in    
Wind  
Wind Speed 7 mph (WNW)    
Max Wind Speed 20 mph    
Max Gust Speed 26 mph    
Visibility 9 miles    
Events Rain    
Averages and records for this station are not official NWS values.
T = Trace of Precipitation, MM = Missing Value Source: NWS Daily Summary

Daily Weather History Graph

Daily Weather History Graph

Search for Another Location

Airport:

Trip Planner

Search our weather history database for the weather conditions in past years. The results will help you decide how hot, cold, wet, or windy it might be!

Date:

Astronomy

Sep. 21, 2013 Rise Set
Actual Time 7:20 AM EDT 7:32 PM EDT
Civil Twilight 6:52 AM EDT 8:00 PM EDT
Nautical Twilight 6:19 AM EDT 8:32 PM EDT
Astronomical Twilight 5:46 AM EDT 9:06 PM EDT
Moon 8:39 PM EDT (9/21) 9:40 AM EDT (9/21)
Length of Visible Light 13h 07m
Length of Day
12h 11m
Waning Gibbous, 94% of the Moon is Illuminated
Sep 21
Waning Gibbous
Sep 26
Last Quarter
Oct 4
New
Oct 11
First Quarter
Oct 18
Full

Hourly Weather History & Observations

Time (EDT) Temp. Dew Point Humidity Pressure Visibility Wind Dir Wind Speed Gust Speed Precip Events Conditions
12:16 AM 71.6 °F 69.8 °F 94% 29.73 in 3.0 mi WNW 4.6 mph - N/A Rain Heavy Rain
12:36 AM 69.8 °F 68.0 °F 94% 29.75 in 1.5 mi West 11.5 mph 16.1 mph N/A Rain Heavy Rain
12:54 AM 68.0 °F 66.2 °F 94% 29.74 in 3.0 mi WNW 6.9 mph - N/A Rain Heavy Rain
1:14 AM 68.0 °F 66.2 °F 94% 29.73 in 4.0 mi WNW 3.5 mph - N/A Rain Rain
1:34 AM 68.0 °F 66.2 °F 94% 29.73 in 7.0 mi Calm Calm - N/A Rain Light Rain
1:54 AM 68.0 °F 66.2 °F 94% 29.73 in 5.0 mi Calm Calm - N/A Rain Rain
2:14 AM 66.2 °F 66.2 °F 100% 29.73 in 4.0 mi Calm Calm - N/A Rain Light Rain
2:34 AM 66.2 °F 66.2 °F 100% 29.72 in 5.0 mi Calm Calm - N/A Rain Light Rain
2:54 AM 68.0 °F 66.2 °F 94% 29.72 in 5.0 mi Calm Calm - N/A Rain Light Rain
3:15 AM 68.0 °F 66.2 °F 94% 29.72 in 7.0 mi WSW 4.6 mph - N/A Rain Light Rain
3:35 AM 66.2 °F 66.2 °F 100% 29.71 in 5.0 mi West 4.6 mph - N/A Rain Light Rain
3:55 AM 66.2 °F 66.2 °F 100% 29.70 in 5.0 mi Calm Calm - N/A Rain Rain
4:15 AM 66.2 °F 66.2 °F 100% 29.70 in 5.0 mi West 4.6 mph - N/A   Light Drizzle
4:35 AM 66.2 °F 66.2 °F 100% 29.69 in 7.0 mi West 9.2 mph - N/A   Overcast
4:55 AM 66.2 °F 64.4 °F 94% 29.68 in 10.0 mi WNW 6.9 mph - N/A   Overcast
5:15 AM 66.2 °F 62.6 °F 88% 29.69 in 10.0 mi WNW 8.1 mph - N/A   Overcast
5:35 AM 64.4 °F 62.6 °F 94% 29.69 in 10.0 mi WNW 8.1 mph - N/A   Mostly Cloudy
5:55 AM 64.4 °F 62.6 °F 94% 29.68 in 10.0 mi WNW 6.9 mph - N/A   Overcast
6:15 AM 64.4 °F 62.6 °F 94% 29.69 in 10.0 mi WNW 9.2 mph - N/A   Mostly Cloudy
6:36 AM 64.4 °F 62.6 °F 94% 29.69 in 10.0 mi WNW 5.8 mph - N/A   Mostly Cloudy
6:56 AM 62.6 °F 60.8 °F 94% 29.69 in 10.0 mi WNW 5.8 mph - N/A   Mostly Cloudy
7:16 AM 62.6 °F 60.8 °F 94% 29.68 in 10.0 mi WNW 3.5 mph - N/A   Scattered Clouds
7:36 AM 62.6 °F 60.8 °F 94% 29.69 in 10.0 mi WNW 5.8 mph - N/A   Scattered Clouds
7:56 AM 62.6 °F 60.8 °F 94% 29.69 in 10.0 mi West 5.8 mph - N/A   Clear
8:16 AM 62.6 °F 60.8 °F 94% 29.69 in 7.0 mi West 4.6 mph - N/A   Clear
8:36 AM 62.6 °F 60.8 °F 94% 29.69 in 7.0 mi WNW 5.8 mph - N/A   Clear
8:56 AM 62.6 °F 60.8 °F 94% 29.70 in 7.0 mi WNW 9.2 mph - N/A   Clear
9:16 AM 62.6 °F 60.8 °F 94% 29.71 in 7.0 mi WNW 8.1 mph - N/A   Clear
9:36 AM 62.6 °F 60.8 °F 94% 29.71 in 10.0 mi WNW 9.2 mph 16.1 mph N/A   Mostly Cloudy
9:57 AM 62.6 °F 60.8 °F 94% 29.72 in 10.0 mi WNW 8.1 mph - N/A   Mostly Cloudy
10:12 AM 62.6 °F 60.8 °F 94% 29.72 in 10.0 mi WNW 6.9 mph - N/A   Scattered Clouds
10:32 AM 62.6 °F 60.8 °F 94% 29.72 in 10.0 mi WNW 10.4 mph - N/A   Mostly Cloudy
10:52 AM 64.4 °F 59.0 °F 83% 29.72 in 10.0 mi WNW 9.2 mph - N/A   Overcast
11:12 AM 66.2 °F 60.8 °F 83% 29.72 in 10.0 mi WNW 11.5 mph - N/A   Mostly Cloudy
11:32 AM 66.2 °F 59.0 °F 78% 29.72 in 10.0 mi WNW 10.4 mph 17.3 mph N/A   Mostly Cloudy
11:52 AM 68.0 °F 59.0 °F 73% 29.72 in 10.0 mi NW 11.5 mph 16.1 mph N/A   Mostly Cloudy
12:12 PM 69.8 °F 59.0 °F 68% 29.71 in 10.0 mi NW 11.5 mph - N/A   Mostly Cloudy
12:32 PM 68.0 °F 57.2 °F 68% 29.72 in 10.0 mi NW 11.5 mph 17.3 mph N/A   Mostly Cloudy
12:52 PM 71.6 °F 57.2 °F 60% 29.72 in 10.0 mi NW 15.0 mph 18.4 mph N/A   Scattered Clouds
1:12 PM 69.8 °F 57.2 °F 64% 29.73 in 10.0 mi NW 19.6 mph 26.5 mph N/A   Scattered Clouds
1:33 PM 68.0 °F 57.2 °F 68% 29.73 in 10.0 mi NW 17.3 mph - N/A   Mostly Cloudy
1:53 PM 71.6 °F 55.4 °F 57% 29.73 in 10.0 mi NNW 15.0 mph 18.4 mph N/A   Scattered Clouds
2:13 PM 71.6 °F 53.6 °F 53% 29.73 in 10.0 mi North 13.8 mph - N/A   Scattered Clouds
2:33 PM 71.6 °F 55.4 °F 57% 29.73 in 10.0 mi NNW 13.8 mph 18.4 mph N/A   Scattered Clouds
2:53 PM 69.8 °F 53.6 °F 56% 29.73 in 10.0 mi NW 13.8 mph 23.0 mph N/A   Scattered Clouds
3:13 PM 71.6 °F 51.8 °F 50% 29.73 in 10.0 mi NW 12.7 mph 21.9 mph N/A   Clear
3:33 PM 69.8 °F 53.6 °F 56% 29.73 in 10.0 mi NW 9.2 mph 17.3 mph N/A   Clear
3:53 PM 71.6 °F 53.6 °F 53% 29.73 in 10.0 mi NNW 11.5 mph 17.3 mph N/A   Mostly Cloudy
4:13 PM 69.8 °F 51.8 °F 53% 29.74 in 10.0 mi NW 16.1 mph 21.9 mph N/A   Mostly Cloudy
4:34 PM 69.8 °F 50.0 °F 49% 29.74 in 10.0 mi WNW 12.7 mph 17.3 mph N/A   Clear
4:54 PM 71.6 °F 51.8 °F 50% 29.74 in 10.0 mi NW 10.4 mph 17.3 mph N/A   Scattered Clouds
5:14 PM 69.8 °F 48.2 °F 46% 29.75 in 10.0 mi West 10.4 mph - N/A   Scattered Clouds
5:34 PM 68.0 °F 50.0 °F 52% 29.76 in 10.0 mi WNW 9.2 mph - N/A   Scattered Clouds
5:54 PM 68.0 °F 48.2 °F 49% 29.76 in 10.0 mi WNW 13.8 mph - N/A   Mostly Cloudy
6:14 PM 66.2 °F 50.0 °F 56% 29.77 in 10.0 mi NW 11.5 mph 16.1 mph N/A   Mostly Cloudy
6:34 PM 66.2 °F 50.0 °F 56% 29.77 in 10.0 mi NW 10.4 mph - N/A   Mostly Cloudy
6:54 PM 66.2 °F 50.0 °F 56% 29.78 in 10.0 mi NW 9.2 mph - N/A   Overcast
7:14 PM 64.4 °F 51.8 °F 64% 29.78 in 10.0 mi NW 9.2 mph - N/A   Overcast
7:34 PM 64.4 °F 50.0 °F 59% 29.79 in 10.0 mi WNW 6.9 mph - N/A   Mostly Cloudy
7:54 PM 62.6 °F 51.8 °F 68% 29.79 in 10.0 mi WNW 6.9 mph - N/A   Mostly Cloudy
8:15 PM 62.6 °F 50.0 °F 63% 29.80 in 10.0 mi WNW 6.9 mph - N/A   Overcast
8:35 PM 62.6 °F 50.0 °F 63% 29.81 in 10.0 mi WNW 6.9 mph - N/A   Overcast
8:55 PM 62.6 °F 50.0 °F 63% 29.81 in 10.0 mi NW 9.2 mph - N/A   Overcast
9:15 PM 62.6 °F 50.0 °F 63% 29.82 in 10.0 mi NW 6.9 mph 10.4 mph N/A   Overcast
9:35 PM 60.8 °F 51.8 °F 72% 29.83 in 10.0 mi NW 6.9 mph - N/A   Overcast
9:55 PM 59.0 °F 51.8 °F 77% 29.83 in 10.0 mi NW 5.8 mph - N/A   Scattered Clouds
10:15 PM 57.2 °F 51.8 °F 82% 29.84 in 10.0 mi NW 5.8 mph - N/A   Clear
10:35 PM 57.2 °F 51.8 °F 82% 29.84 in 10.0 mi NW 5.8 mph - N/A   Clear
10:56 PM 55.4 °F 50.0 °F 82% 29.85 in 10.0 mi NW 4.6 mph - N/A   Clear
11:16 PM 55.4 °F 51.8 °F 88% 29.85 in 10.0 mi WNW 3.5 mph - N/A   Scattered Clouds
11:36 PM 57.2 °F 51.8 °F 82% 29.85 in 10.0 mi NW 3.5 mph - N/A   Overcast
11:56 PM 57.2 °F 51.8 °F 82% 29.86 in 10.0 mi NNW 3.5 mph - N/A   Overcast